When you browse on this site, cookies collect data to enhance your experience and personalize the content and advertising you see.
Visit our Privacy Policy to learn more. By continuing to use the site, you agree to this use of cookies and data.

Hourly Weather Kozova

Today, 9 July, Thursday

Time Temperature Precipitation Wind Pressure Humidity
00:00 +14°C° 0 mm 2 mps 729 mmHg 81%
01:00 +14°C° 0 mm 2 mps 729 mmHg 82%
02:00 +12°C° 0 mm 3 mps 730 mmHg 83%
03:00 +13°C° 0.4 mm 2 mps 730 mmHg 87%
04:00 +13°C° 0.4 mm 1 mps 730 mmHg 90%
05:00 +13°C° 0.4 mm 1 mps 730 mmHg 94%
06:00 +13°C° 0.5 mm 1 mps 730 mmHg 95%
07:00 +13°C° 0.5 mm 1 mps 730 mmHg 95%
08:00 +13°C° 0.5 mm 1 mps 730 mmHg 96%
09:00 +14°C° 0.1 mm 1 mps 730 mmHg 93%
10:00 +15°C° 0.1 mm 2 mps 731 mmHg 90%
11:00 +16°C° 0.1 mm 2 mps 731 mmHg 86%
12:00 +17°C° 0.1 mm 2 mps 731 mmHg 81%
13:00 +19°C° 0.1 mm 2 mps 731 mmHg 76%
14:00 +20°C° 0.1 mm 2 mps 731 mmHg 71%
15:00 +20°C° 0.2 mm 2 mps 731 mmHg 72%
16:00 +20°C° 0.2 mm 2 mps 731 mmHg 72%
17:00 +20°C° 0.2 mm 2 mps 731 mmHg 73%
18:00 +20°C° 0.1 mm 1 mps 730 mmHg 77%
19:00 +19°C° 0.1 mm 1 mps 730 mmHg 80%
20:00 +18°C° 0.1 mm 1 mps 730 mmHg 84%
21:00 +16°C° 0 mm 1 mps 730 mmHg 87%
22:00 +16°C° 0 mm 2 mps 730 mmHg 89%
23:00 +15°C° 0 mm 2 mps 730 mmHg 92%

Tomorrow, 10 July, Friday

Time Temperature Precipitation Wind Pressure Humidity
00:00 +15°C° 0 mm 2 mps 730 mmHg 92%
01:00 +15°C° 0 mm 2 mps 730 mmHg 92%
02:00 +15°C° 0 mm 2 mps 730 mmHg 92%
03:00 +15°C° 0 mm 2 mps 730 mmHg 92%
04:00 +13°C° 0 mm 3 mps 730 mmHg 92%
05:00 +13°C° 0 mm 3 mps 729 mmHg 92%
06:00 +16°C° 0 mm 3 mps 730 mmHg 89%
07:00 +18°C° 0 mm 3 mps 730 mmHg 86%
08:00 +20°C° 0 mm 3 mps 730 mmHg 83%
09:00 +21°C° 0.1 mm 3 mps 730 mmHg 80%
10:00 +23°C° 0.1 mm 4 mps 730 mmHg 77%
11:00 +25°C° 0.1 mm 4 mps 730 mmHg 74%
12:00 +26°C° 0.3 mm 4 mps 730 mmHg 71%
13:00 +27°C° 0.3 mm 3 mps 730 mmHg 68%
14:00 +27°C° 0.3 mm 3 mps 730 mmHg 65%
15:00 +27°C° 0.2 mm 3 mps 729 mmHg 67%
16:00 +27°C° 0.2 mm 3 mps 729 mmHg 70%
17:00 +27°C° 0.2 mm 3 mps 729 mmHg 73%
18:00 +26°C° 0.1 mm 3 mps 729 mmHg 77%
19:00 +24°C° 0.1 mm 3 mps 729 mmHg 82%
20:00 +22°C° 0.1 mm 3 mps 729 mmHg 87%
21:00 +21°C° 0 mm 3 mps 729 mmHg 87%
22:00 +20°C° 0 mm 3 mps 729 mmHg 87%
23:00 +19°C° 0 mm 3 mps 729 mmHg 88%

Day after tomorrow, 11 July, Saturday

Time Temperature Precipitation Wind Pressure Humidity
00:00 +19°C° 0 mm 3 mps 729 mmHg 89%
01:00 +18°C° 0 mm 2 mps 729 mmHg 90%
02:00 +18°C° 0 mm 2 mps 729 mmHg 91%
03:00 +18°C° 0 mm 2 mps 729 mmHg 92%
04:00 +17°C° 0 mm 2 mps 729 mmHg 92%
05:00 +17°C° 0 mm 2 mps 729 mmHg 93%
06:00 +19°C° 0 mm 2 mps 729 mmHg 89%
07:00 +20°C° 0 mm 2 mps 729 mmHg 86%
08:00 +23°C° 0 mm 2 mps 729 mmHg 82%
09:00 +25°C° 0 mm 2 mps 729 mmHg 78%
10:00 +26°C° 0 mm 2 mps 729 mmHg 73%
11:00 +28°C° 0 mm 2 mps 729 mmHg 69%
12:00 +28°C° 0.2 mm 2 mps 729 mmHg 66%
13:00 +29°C° 0.2 mm 2 mps 729 mmHg 64%
14:00 +29°C° 0.2 mm 3 mps 729 mmHg 61%
15:00 +29°C° 0.1 mm 3 mps 728 mmHg 65%
16:00 +28°C° 0.1 mm 3 mps 728 mmHg 69%
17:00 +28°C° 0.1 mm 4 mps 728 mmHg 72%
18:00 +26°C° 0.5 mm 3 mps 728 mmHg 77%
19:00 +25°C° 0.5 mm 3 mps 728 mmHg 81%
20:00 +23°C° 0.5 mm 2 mps 729 mmHg 85%
21:00 +21°C° 0.3 mm 2 mps 729 mmHg 87%
22:00 +20°C° 0.3 mm 2 mps 729 mmHg 89%
23:00 +19°C° 0.3 mm 2 mps 729 mmHg 92%

12 July, Sunday

Time Temperature Precipitation Wind Pressure Humidity
00:00 +19°C° 0 mm 2 mps 729 mmHg 93%
01:00 +18°C° 0 mm 3 mps 729 mmHg 94%
02:00 +18°C° 0 mm 3 mps 729 mmHg 96%
03:00 +18°C° 0 mm 3 mps 729 mmHg 96%
04:00 +17°C° 0 mm 3 mps 728 mmHg 96%
05:00 +17°C° 0 mm 4 mps 728 mmHg 96%
06:00 +17°C° 0.3 mm 4 mps 729 mmHg 96%
07:00 +17°C° 0.3 mm 4 mps 729 mmHg 95%
08:00 +16°C° 0.3 mm 5 mps 729 mmHg 95%
09:00 +15°C° 0.2 mm 5 mps 729 mmHg 95%
10:00 +15°C° 0.2 mm 5 mps 729 mmHg 95%
11:00 +15°C° 0.2 mm 5 mps 729 mmHg 95%
12:00 +14°C° 0.3 mm 5 mps 729 mmHg 95%
13:00 +13°C° 0.3 mm 6 mps 729 mmHg 95%
14:00 +11°C° 0.3 mm 6 mps 729 mmHg 95%
15:00 +10°C° 0.5 mm 6 mps 729 mmHg 95%
16:00 +10°C° 0.5 mm 6 mps 729 mmHg 95%
17:00 +10°C° 0.5 mm 6 mps 729 mmHg 95%
18:00 +10°C° 1.6 mm 6 mps 729 mmHg 95%
19:00 +9°C° 1.6 mm 6 mps 729 mmHg 96%
20:00 +9°C° 1.6 mm 6 mps 729 mmHg 96%
21:00 +9°C° 1.5 mm 6 mps 729 mmHg 96%
22:00 +9°C° 1.5 mm 7 mps 729 mmHg 96%
23:00 +9°C° 1.5 mm 7 mps 729 mmHg 95%

13 July, Monday

Time Temperature Precipitation Wind Pressure Humidity
00:00 +9°C° 0.5 mm 6 mps 729 mmHg 96%
01:00 +9°C° 0.5 mm 6 mps 729 mmHg 96%
02:00 +9°C° 0.5 mm 6 mps 729 mmHg 96%
03:00 +9°C° 0.7 mm 6 mps 729 mmHg 96%
04:00 +9°C° 0.7 mm 6 mps 729 mmHg 96%
05:00 +9°C° 0.7 mm 6 mps 729 mmHg 96%
06:00 +9°C° 0.3 mm 6 mps 729 mmHg 96%
07:00 +9°C° 0.3 mm 6 mps 729 mmHg 95%
08:00 +9°C° 0.3 mm 5 mps 729 mmHg 95%
09:00 +10°C° 0.2 mm 5 mps 729 mmHg 95%
10:00 +10°C° 0.2 mm 5 mps 730 mmHg 94%
11:00 +10°C° 0.2 mm 5 mps 730 mmHg 94%
12:00 +12°C° 0.1 mm 5 mps 730 mmHg 90%
13:00 +13°C° 0.1 mm 4 mps 729 mmHg 86%
14:00 +14°C° 0.1 mm 4 mps 729 mmHg 82%
15:00 +14°C° 0.4 mm 4 mps 729 mmHg 81%
16:00 +15°C° 0.4 mm 4 mps 729 mmHg 80%
17:00 +15°C° 0.4 mm 4 mps 728 mmHg 79%
18:00 +14°C° 0.2 mm 4 mps 728 mmHg 83%
19:00 +13°C° 0.2 mm 3 mps 728 mmHg 88%
20:00 +12°C° 0.2 mm 3 mps 728 mmHg 92%
21:00 +11°C° 0 mm 3 mps 728 mmHg 93%
22:00 +11°C° 0 mm 3 mps 728 mmHg 94%
23:00 +10°C° 0 mm 4 mps 728 mmHg 96%

14 July, Tuesday

Time Temperature Precipitation Wind Pressure Humidity
00:00 +10°C° 0 mm 4 mps 727 mmHg 96%
01:00 +10°C° 0 mm 4 mps 727 mmHg 96%
02:00 +9°C° 0 mm 5 mps 727 mmHg 97%
03:00 +9°C° 0 mm 5 mps 727 mmHg 97%
04:00 +10°C° 0 mm 5 mps 727 mmHg 97%
05:00 +10°C° 0 mm 6 mps 727 mmHg 96%
06:00 +10°C° 0 mm 6 mps 727 mmHg 96%
07:00 +10°C° 0 mm 6 mps 727 mmHg 96%
08:00 +10°C° 0 mm 6 mps 727 mmHg 95%
09:00 +12°C° 0.1 mm 7 mps 727 mmHg 90%
10:00 +14°C° 0.1 mm 7 mps 727 mmHg 84%
11:00 +15°C° 0.1 mm 7 mps 727 mmHg 79%
12:00 +15°C° 0.2 mm 7 mps 727 mmHg 79%
13:00 +15°C° 0.2 mm 7 mps 727 mmHg 79%
14:00 +15°C° 0.2 mm 7 mps 727 mmHg 80%
15:00 +15°C° 0.4 mm 7 mps 727 mmHg 81%
16:00 +15°C° 0.4 mm 6 mps 726 mmHg 82%
17:00 +15°C° 0.4 mm 6 mps 726 mmHg 83%
18:00 +15°C° 0.1 mm 6 mps 726 mmHg 85%
19:00 +14°C° 0.1 mm 5 mps 726 mmHg 88%
20:00 +13°C° 0.1 mm 4 mps 726 mmHg 90%
21:00 +13°C° 0 mm 4 mps 727 mmHg 91%
22:00 +12°C° 0 mm 4 mps 727 mmHg 92%
23:00 +12°C° 0 mm 5 mps 727 mmHg 92%
Show more